Hourly Data Report for December 06, 2018

EUREKA CLIMATE
NUNAVUT
Current Station Operator: ECCC - MSC

79°59'21.000" N
85°56'02.000" W
10.00 m
2401199
71613
NEK

Download Data

Hourly Data (December 2018)
Hourly Data Report for December 6, 2018
TIME
LST
Temp Definition
°C
Dew Point Definition
°C
Rel Hum Definition
%
Precip. Amount Definition
mm

Wind Dir Definition
10's deg

Wind Spd Definition
km/h
Visibility Definition
km
Stn Press Definition
kPa
Hmdx Definition


Wind Chill Definition


Weather Definition


00:00 -41.2 -45.4 63 0.0 10 4   100.56   -47 LegendNANA
01:00 -40.5 -44.7 64 0.0 10 3   100.53   -45 LegendNANA
02:00 -41.1 -45.4 63 0.0 10 6   100.51   -49 LegendNANA
03:00 -41.4 -45.7 63 0.0 12 7   100.49   -51 LegendNANA
04:00 -41.4 -45.7 63 0.0 11 6   100.46   -50 LegendNANA
05:00 -41.4 -45.7 63 0.0 11 5   100.43   -49 LegendNANA
06:00 -41.0 -45.2 64 0.0 9 6   100.41   -49 LegendNANA
07:00 -41.1 -45.4 64 0.0   0   100.36     LegendNANA
08:00 -41.0 -45.3 64 0.0 11 5   100.32   -48 LegendNANA
09:00 -40.8 -45.0 64 0.0 10 5   100.31   -48 LegendNANA
10:00 -40.5 -44.7 64 0.0 11 7   100.25   -49 LegendNANA
11:00 -40.2 -44.4 64 0.0 11 7   100.22   -49 LegendNANA
12:00 -39.9 -44.0 65 0.0 9 5   100.18   -47 LegendNANA
13:00 -40.3 -44.5 64 0.0 11 7   100.14   -49 LegendNANA
14:00 -39.8 -44.0 65 0.0 11 7   100.12   -49 LegendNANA
15:00 -39.9 -44.0 65 0.0 10 3   100.11   -44 LegendNANA
16:00 -40.7 -45.0 63 0.0 5 5   100.10   -48 LegendNANA
17:00 -39.8 -43.9 65 0.0 12 4   100.10   -45 LegendNANA
18:00 -39.7 -43.8 65 0.0 11 4   100.07   -45 LegendNANA
19:00 -40.4 -44.6 64 0.0 12 8   100.04   -50 LegendNANA
20:00 -40.0 -44.1 65 0.0 12 2   100.02   -43 LegendNANA
21:00 -38.7 -42.7 66 0.0 7 3   100.01   -43 LegendNANA
22:00 -40.1 -44.2 65 0.0 12 6   99.98   -48 LegendNANA
23:00 -40.4 -44.6 64 0.0 12 6   99.96   -48 LegendNANA

Notes on Data Quality.

Legend

  • E = Estimated
  • M = Missing
  • NA = Not Available*
  • [empty] = Indicates an unobserved value
Date modified: